| time (UTC) | temp C | wind direction | speed KPH | gust KPH | rain 1hr cm | rain 24hr cm | rain mn cm | humidity % | barometer mb |
| 20260902233943 | 13 | 202 | 0.0 | 0.0 | 0.00 | 0.00 | 0.00 | 85 | 1054.2 |
| 20260902233443 | 13 | 157 | 0.0 | 0.0 | 0.00 | 0.00 | 0.00 | 85 | 1010.6 |
| 20260902233342 | 13 | 157 | 0.0 | 0.0 | 0.00 | 0.00 | 0.00 | 85 | 989.1 |
| 20260902232943 | 13 | 135 | 0.0 | 0.0 | 0.00 | 0.00 | 0.00 | 85 | 1066.9 |
| 20260902232443 | 13 | 180 | 0.0 | 0.0 | 0.00 | 0.00 | 0.00 | 85 | 1070.9 |
| 20260902231943 | 13 | 202 | 0.0 | 0.0 | 0.00 | 0.00 | 0.00 | 85 | 1047.6 |
| 20260902231443 | 13 | 225 | 0.0 | 0.0 | 0.00 | 0.00 | 0.00 | 85 | 1050.1 |
| 20260902230943 | 13 | 202 | 0.0 | 0.0 | 0.00 | 0.00 | 0.00 | 85 | 1059.5 |
| 20260902230443 | 13 | 135 | 0.0 | 0.0 | 0.00 | 0.00 | 0.00 | 85 | 1044.6 |
| 20260902230042 | 13 | 202 | 0.0 | 0.0 | 0.00 | 0.00 | 0.00 | 85 | 1019.6 |
| 20260902225943 | 12 | 247 | 0.0 | 0.0 | 0.00 | 0.00 | 0.00 | 85 | 1064.1 |
| 20260902225443 | 12 | 225 | 0.0 | 0.0 | 0.00 | 0.00 | 0.00 | 84 | 1004.7 |
| 20260902224943 | 12 | 225 | 0.0 | 0.0 | 0.00 | 0.00 | 0.00 | 84 | 1074.2 |
| 20260902224443 | 12 | 180 | 0.0 | 0.0 | 0.00 | 0.00 | 0.00 | 84 | 1014.1 |
| 20260902223943 | 12 | 180 | 0.0 | 0.0 | 0.00 | 0.00 | 0.00 | 84 | 976.4 |
| 20260902223443 | 12 | 157 | 0.0 | 0.0 | 0.00 | 0.00 | 0.00 | 83 | 1053.6 |
| 20260902222943 | 12 | 157 | 0.0 | 0.0 | 0.00 | 0.00 | 0.00 | 83 | 1040.6 |
| 20260902222742 | 12 | 157 | 0.0 | 0.0 | 0.00 | 0.00 | 0.00 | 83 | 1045.5 |
| 20260902222443 | 12 | 135 | 0.0 | 0.0 | 0.00 | 0.00 | 0.00 | 83 | 1043.4 |
| 20260902221943 | 13 | 135 | 0.0 | 0.0 | 0.00 | 0.00 | 0.00 | 83 | 1076.7 |
| 20260902221444 | 13 | 112 | 0.0 | 0.0 | 0.00 | 0.00 | 0.00 | 83 | 1054.7 |
| 20260902220943 | 13 | 112 | 0.0 | 0.0 | 0.00 | 0.00 | 0.00 | 83 | 1010.3 |
| 20260902220443 | 13 | 135 | 0.0 | 0.0 | 0.00 | 0.00 | 0.00 | 82 | 1071.0 |
| 20260902215943 | 13 | 135 | 0.0 | 0.0 | 0.00 | 0.00 | 0.00 | 82 | 1066.4 |
| 20260902215442 | 13 | 135 | 0.0 | 0.0 | 0.00 | 0.00 | 0.00 | 82 | 1076.6 |
| 20260902214943 | 13 | 157 | 0.0 | 0.0 | 0.00 | 0.00 | 0.00 | 82 | 1059.5 |
| 20260902214443 | 13 | 157 | 0.0 | 0.0 | 0.00 | 0.00 | 0.00 | 82 | 1046.3 |
| 20260902213944 | 13 | 135 | 0.0 | 1.6 | 0.00 | 0.00 | 0.00 | 82 | 1052.8 |
| 20260902213443 | 13 | 135 | 1.6 | 1.6 | 0.00 | 0.00 | 0.00 | 82 | 1065.8 |
| 20260902212943 | 13 | 112 | 0.0 | 0.0 | 0.00 | 0.00 | 0.00 | 81 | 1006.7 |
| 20260902212444 | 13 | 135 | 0.0 | 0.0 | 0.00 | 0.00 | 0.00 | 81 | 1063.0 |
| 20260902212142 | 13 | 135 | 0.0 | 0.0 | 0.00 | 0.00 | 0.00 | 81 | 1049.9 |
| 20260902211943 | 13 | 112 | 0.0 | 0.0 | 0.00 | 0.00 | 0.00 | 81 | 1061.0 |
| 20260902211443 | 13 | 135 | 0.0 | 0.0 | 0.00 | 0.00 | 0.00 | 81 | 1012.7 |
| 20260902210943 | 13 | 157 | 0.0 | 0.0 | 0.00 | 0.00 | 0.00 | 80 | 1027.8 |
| 20260902210443 | 13 | 157 | 0.0 | 0.0 | 0.00 | 0.00 | 0.00 | 80 | 1063.4 |
| 20260902205943 | 13 | 135 | 0.0 | 0.0 | 0.00 | 0.00 | 0.00 | 80 | 1031.0 |
| 20260902205443 | 13 | 180 | 0.0 | 0.0 | 0.00 | 0.00 | 0.00 | 79 | 1062.8 |
| 20260902204943 | 14 | 202 | 0.0 | 0.0 | 0.00 | 0.00 | 0.00 | 79 | 1044.9 |
| 20260902204842 | 14 | 202 | 0.0 | 0.0 | 0.00 | 0.00 | 0.00 | 79 | 1066.9 |
| 20260902204443 | 14 | 202 | 0.0 | 0.0 | 0.00 | 0.00 | 0.00 | 79 | 1073.0 |
| 20260902203943 | 14 | 180 | 0.0 | 0.0 | 0.00 | 0.00 | 0.00 | 79 | 1078.2 |
| 20260902203443 | 14 | 180 | 0.0 | 0.0 | 0.00 | 0.00 | 0.00 | 79 | 1060.8 |
| 20260902202943 | 14 | 180 | 0.0 | 0.0 | 0.00 | 0.00 | 0.00 | 78 | 1027.6 |
| 20260902202443 | 14 | 180 | 0.0 | 0.0 | 0.00 | 0.00 | 0.00 | 78 | 1075.9 |
| 20260902201943 | 14 | 180 | 0.0 | 0.0 | 0.00 | 0.00 | 0.00 | 78 | 1023.1 |
| 20260902201542 | 14 | 157 | 0.0 | 0.0 | 0.00 | 0.00 | 0.00 | 78 | 993.6 |
| 20260902201443 | 14 | 157 | 0.0 | 0.0 | 0.00 | 0.00 | 0.00 | 78 | 1034.2 |
| 20260902200943 | 14 | 180 | 0.0 | 0.0 | 0.00 | 0.00 | 0.00 | 78 | 995.2 |
| 20260902200443 | 15 | 180 | 0.0 | 1.6 | 0.00 | 0.00 | 0.00 | 78 | 1050.3 |
| 20260902195943 | 15 | 180 | 0.0 | 0.0 | 0.00 | 0.00 | 0.00 | 77 | 1043.3 |
| 20260902195443 | 15 | 180 | 0.0 | 0.0 | 0.00 | 0.00 | 0.00 | 77 | 1050.1 |
| 20260902194944 | 15 | 157 | 0.0 | 0.0 | 0.00 | 0.00 | 0.00 | 77 | 1076.8 |
| 20260902194443 | 15 | 180 | 0.0 | 0.0 | 0.00 | 0.00 | 0.00 | 76 | 1064.2 |
| 20260902194242 | 15 | 180 | 0.0 | 0.0 | 0.00 | 0.00 | 0.00 | 76 | 1048.8 |
| 20260902193944 | 15 | 157 | 0.0 | 1.6 | 0.00 | 0.00 | 0.00 | 76 | 1062.7 |
| 20260902193443 | 15 | 157 | 0.0 | 3.2 | 0.00 | 0.00 | 0.00 | 75 | 1068.5 |
| 20260902192943 | 15 | 157 | 1.6 | 3.2 | 0.00 | 0.00 | 0.00 | 75 | 1043.8 |
| 20260902192443 | 15 | 67 | 0.0 | 0.0 | 0.00 | 0.00 | 0.00 | 75 | 1030.3 |
| 20260902191944 | 15 | 45 | 0.0 | 0.0 | 0.00 | 0.00 | 0.00 | 74 | 1025.7 |
| 20260902191443 | 15 | 135 | 0.0 | 0.0 | 0.00 | 0.00 | 0.00 | 73 | 1069.2 |
| 20260902190943 | 15 | 135 | 0.0 | 0.0 | 0.00 | 0.00 | 0.00 | 73 | 1047.4 |
| 20260902190444 | 15 | 135 | 0.0 | 0.0 | 0.00 | 0.00 | 0.00 | 73 | 1043.8 |
| 20260902185943 | 15 | 157 | 0.0 | 0.0 | 0.00 | 0.00 | 0.00 | 72 | 1057.5 |
| 20260902185443 | 16 | 135 | 0.0 | 0.0 | 0.00 | 0.00 | 0.00 | 72 | 1070.5 |
| 20260902184944 | 16 | 135 | 0.0 | 0.0 | 0.00 | 0.00 | 0.00 | 72 | 1059.5 |
| 20260902184444 | 16 | 135 | 0.0 | 0.0 | 0.00 | 0.00 | 0.00 | 71 | 1029.7 |
| 20260902183944 | 16 | 135 | 0.0 | 0.0 | 0.00 | 0.00 | 0.00 | 71 | 1063.2 |
| 20260902183643 | 16 | 157 | 0.0 | 0.0 | 0.00 | 0.00 | 0.00 | 70 | 1074.1 |
| 20260902183444 | 16 | 225 | 0.0 | 0.0 | 0.00 | 0.00 | 0.00 | 70 | 1056.4 |
| 20260902182944 | 16 | 247 | 0.0 | 0.0 | 0.00 | 0.00 | 0.00 | 69 | 1074.5 |
| 20260902182444 | 16 | 247 | 0.0 | 0.0 | 0.00 | 0.00 | 0.00 | 68 | 1053.2 |
| 20260902181944 | 16 | 225 | 0.0 | 0.0 | 0.00 | 0.00 | 0.00 | 68 | 1067.1 |
| 20260902181444 | 17 | 247 | 0.0 | 0.0 | 0.00 | 0.00 | 0.00 | 67 | 1055.0 |
| 20260902180944 | 17 | 247 | 0.0 | 0.0 | 0.00 | 0.00 | 0.00 | 66 | 1056.4 |
| 20260902180444 | 17 | 225 | 0.0 | 1.6 | 0.00 | 0.00 | 0.00 | 66 | 1065.8 |
| 20260902180343 | 17 | 225 | 0.0 | 1.6 | 0.00 | 0.00 | 0.00 | 65 | 972.1 |
| 20260902175944 | 17 | 225 | 1.6 | 9.7 | 0.00 | 0.00 | 0.00 | 65 | 1078.4 |
| 20260902175444 | 17 | 247 | 0.0 | 1.6 | 0.00 | 0.00 | 0.00 | 64 | 1053.8 |
| 20260902174944 | 17 | 270 | 1.6 | 1.6 | 0.00 | 0.00 | 0.00 | 64 | 1034.3 |
| 20260902174444 | 17 | 270 | 0.0 | 1.6 | 0.00 | 0.00 | 0.00 | 63 | 1059.5 |
| 20260902173944 | 17 | 270 | 0.0 | 3.2 | 0.00 | 0.00 | 0.00 | 62 | 1056.4 |
| 20260902173444 | 18 | 270 | 3.2 | 3.2 | 0.00 | 0.00 | 0.00 | 61 | 1069.4 |
| 20260902173043 | 18 | 270 | 0.0 | 3.2 | 0.00 | 0.00 | 0.00 | 60 | 989.2 |
| 20260902172944 | 18 | 225 | 0.0 | 3.2 | 0.00 | 0.00 | 0.00 | 60 | 1043.8 |
| 20260902172444 | 18 | 270 | 0.0 | 3.2 | 0.00 | 0.00 | 0.00 | 60 | 1040.6 |
| 20260902171944 | 18 | 225 | 3.2 | 3.2 | 0.00 | 0.00 | 0.00 | 59 | 1065.8 |
| 20260902171444 | 18 | 225 | 0.0 | 3.2 | 0.00 | 0.00 | 0.00 | 58 | 1059.5 |
| 20260902170944 | 19 | 202 | 0.0 | 4.8 | 0.00 | 0.00 | 0.00 | 58 | 1066.5 |
| 20260902170444 | 19 | 270 | 0.0 | 4.8 | 0.00 | 0.00 | 0.00 | 57 | 1025.1 |
| 20260902165944 | 20 | 270 | 3.2 | 8.0 | 0.00 | 0.00 | 0.00 | 57 | 1068.5 |
| 20260902165743 | 20 | 247 | 3.2 | 8.0 | 0.00 | 0.00 | 0.00 | 57 | 1022.5 |
| 20260902165444 | 20 | 270 | 1.6 | 6.4 | 0.00 | 0.00 | 0.00 | 56 | 1053.2 |
| 20260902164944 | 20 | 247 | 4.8 | 9.7 | 0.00 | 0.00 | 0.00 | 56 | 1037.5 |
| 20260902164444 | 20 | 270 | 3.2 | 12.9 | 0.00 | 0.00 | 0.00 | 55 | 1022.3 |
| 20260902163944 | 20 | 292 | 4.8 | 14.5 | 0.00 | 0.00 | 0.00 | 55 | 1020.4 |
| 20260902163444 | 20 | 270 | 9.7 | 12.9 | 0.00 | 0.00 | 0.00 | 54 | 1062.6 |
| 20260902162944 | 21 | 247 | 4.8 | 19.3 | 0.00 | 0.00 | 0.00 | 54 | 1026.0 |
| 20260902162443 | 21 | 270 | 3.2 | 16.1 | 0.00 | 0.00 | 0.00 | 54 | 1062.7 |
| 20260902161944 | 21 | 270 | 4.8 | 16.1 | 0.00 | 0.00 | 0.00 | 53 | 1040.6 |
| 20260902161444 | 21 | 270 | 12.9 | 16.1 | 0.00 | 0.00 | 0.00 | 53 | 1054.5 |
| 20260902160944 | 21 | 247 | 8.0 | 19.3 | 0.00 | 0.00 | 0.00 | 52 | 1055.7 |
| 20260902160444 | 21 | 270 | 12.9 | 19.3 | 0.00 | 0.00 | 0.00 | 52 | 1050.1 |
| 20260902155944 | 21 | 247 | 17.7 | 20.9 | 0.00 | 0.00 | 0.00 | 51 | 1076.7 |
| 20260902155444 | 22 | 270 | 19.3 | 25.7 | 0.00 | 0.00 | 0.00 | 50 | 1034.0 |
| 20260902155143 | 22 | 292 | 19.3 | 25.7 | 0.00 | 0.00 | 0.00 | 50 | 1063.9 |
| 20260902154944 | 22 | 247 | 24.1 | 27.4 | 0.00 | 0.00 | 0.00 | 50 | 1040.0 |
| 20260902154444 | 22 | 247 | 12.9 | 27.4 | 0.00 | 0.00 | 0.00 | 50 | 1087.7 |
| 20260902153944 | 22 | 292 | 16.1 | 24.1 | 0.00 | 0.00 | 0.00 | 50 | 1062.7 |
| 20260902153444 | 22 | 270 | 16.1 | 25.7 | 0.00 | 0.00 | 0.00 | 51 | 1062.7 |
| 20260902152944 | 22 | 270 | 20.9 | 20.9 | 0.00 | 0.00 | 0.00 | 51 | 1065.7 |
| 20260902152444 | 22 | 247 | 14.5 | 19.3 | 0.00 | 0.00 | 0.00 | 51 | 1059.5 |
| 20260902151944 | 22 | 270 | 9.7 | 27.4 | 0.00 | 0.00 | 0.00 | 51 | 1059.4 |
| 20260902151843 | 22 | 45 | 3.2 | 27.4 | 0.00 | 0.00 | 0.00 | 51 | 1036.3 |
| 20260902151444 | 22 | 270 | 4.8 | 24.1 | 0.00 | 0.00 | 0.00 | 50 | 1062.7 |
| 20260902150944 | 22 | 0 | 14.5 | 19.3 | 0.00 | 0.00 | 0.00 | 50 | 1053.2 |
| 20260902150444 | 22 | 270 | 17.7 | 27.4 | 0.00 | 0.00 | 0.00 | 50 | 1078.3 |
| 20260902145944 | 22 | 270 | 22.5 | 22.5 | 0.00 | 0.00 | 0.00 | 50 | 1027.6 |
| 20260902145444 | 22 | 270 | 19.3 | 30.6 | 0.00 | 0.00 | 0.00 | 49 | 1048.5 |
| 20260902144944 | 23 | 270 | 27.4 | 27.4 | 0.00 | 0.00 | 0.00 | 49 | 1050.0 |
| 20260902144543 | 23 | 292 | 8.0 | 29.0 | 0.00 | 0.00 | 0.00 | 49 | 1059.9 |
| 20260902144444 | 23 | 270 | 17.7 | 29.0 | 0.00 | 0.00 | 0.00 | 49 | 1065.8 |
| 20260902143944 | 23 | 22 | 9.7 | 30.6 | 0.00 | 0.00 | 0.00 | 49 | 1059.5 |
| 20260902143444 | 23 | 292 | 19.3 | 27.4 | 0.00 | 0.00 | 0.00 | 50 | 1056.3 |
| 20260902142944 | 22 | 292 | 12.9 | 29.0 | 0.00 | 0.00 | 0.00 | 50 | 1072.1 |
| 20260902142444 | 22 | 292 | 25.7 | 27.4 | 0.00 | 0.00 | 0.00 | 50 | 1050.1 |
| 20260902141944 | 23 | 270 | 27.4 | 27.4 | 0.00 | 0.00 | 0.00 | 50 | 1074.9 |
| 20260902141445 | 23 | 292 | 19.3 | 22.5 | 0.00 | 0.00 | 0.00 | 49 | 1059.3 |
| 20260902141243 | 23 | 270 | 22.5 | 22.5 | 0.00 | 0.00 | 0.00 | 50 | 1053.2 |
| 20260902140944 | 23 | 270 | 17.7 | 19.3 | 0.00 | 0.00 | 0.00 | 50 | 1068.9 |
| 20260902140444 | 22 | 270 | 19.3 | 19.3 | 0.00 | 0.00 | 0.00 | 50 | 1043.8 |
| 20260902135944 | 22 | 270 | 11.3 | 24.1 | 0.00 | 0.00 | 0.00 | 49 | 1053.2 |
| 20260902135444 | 22 | 247 | 9.7 | 27.4 | 0.00 | 0.00 | 0.00 | 49 | 1053.3 |
| 20260902134444 | 23 | 225 | 8.0 | 30.6 | 0.00 | 0.00 | 0.00 | 47 | 1043.8 |
| 20260902133943 | 24 | 270 | 27.4 | 27.4 | 0.00 | 0.00 | 0.00 | 46 | 1065.8 |
| 20260902133444 | 24 | 270 | 30.6 | 30.6 | 0.00 | 0.00 | 0.00 | 46 | 1059.5 |
| 20260902132944 | 24 | 180 | 22.5 | 25.7 | 0.00 | 0.00 | 0.00 | 47 | 1062.7 |
| 20260902132652 | 24 | 270 | 16.1 | 30.6 | 0.00 | 0.00 | 0.00 | 48 | 1069.0 |
| 20260902132444 | 24 | 270 | 16.1 | 30.6 | 0.00 | 0.00 | 0.00 | 48 | 1069.0 |
| 20260902131944 | 24 | 225 | 14.5 | 22.5 | 0.00 | 0.00 | 0.00 | 48 | 1043.8 |
| 20260902131444 | 24 | 292 | 14.5 | 29.0 | 0.00 | 0.00 | 0.00 | 48 | 1043.8 |
| 20260902130944 | 23 | 247 | 25.7 | 33.8 | 0.00 | 0.00 | 0.00 | 48 | 1053.2 |
| 20260902130643 | 23 | 247 | 16.1 | 33.8 | 0.00 | 0.00 | 0.00 | 48 | 1050.0 |
| 20260902130444 | 23 | 247 | 12.9 | 27.4 | 0.00 | 0.00 | 0.00 | 48 | 1059.5 |
| 20260902125944 | 23 | 270 | 24.1 | 27.4 | 0.00 | 0.00 | 0.00 | 49 | 1043.8 |
| 20260902125444 | 23 | 225 | 16.1 | 27.4 | 0.00 | 0.00 | 0.00 | 50 | 1040.6 |
| 20260902124944 | 23 | 270 | 14.5 | 27.4 | 0.00 | 0.00 | 0.00 | 50 | 1053.2 |
| 20260902124444 | 23 | 270 | 3.2 | 19.3 | 0.00 | 0.00 | 0.00 | 51 | 1062.7 |
| 20260902123944 | 22 | 270 | 24.1 | 27.4 | 0.00 | 0.00 | 0.00 | 50 | 1043.8 |
| 20260902123444 | 22 | 270 | 17.7 | 27.4 | 0.00 | 0.00 | 0.00 | 50 | 1040.6 |
| 20260902123343 | 22 | 90 | 4.8 | 27.4 | 0.00 | 0.00 | 0.00 | 50 | 1043.8 |
| 20260902122944 | 23 | 270 | 11.3 | 25.7 | 0.00 | 0.00 | 0.00 | 49 | 1046.9 |
| 20260902121945 | 23 | 247 | 12.9 | 27.4 | 0.00 | 0.00 | 0.00 | 46 | 1053.2 |
| 20260902121444 | 25 | 270 | 16.1 | 40.2 | 0.00 | 0.00 | 0.00 | 43 | 1050.0 |
| 20260902120945 | 26 | 270 | 17.7 | 27.4 | 0.00 | 0.00 | 0.00 | 44 | 1053.2 |
| 20260902120444 | 26 | 247 | 16.1 | 29.0 | 0.00 | 0.00 | 0.00 | 44 | 1021.6 |
| 20260902120043 | 25 | 247 | 14.5 | 29.0 | 0.00 | 0.00 | 0.00 | 45 | 1037.5 |
| 20260902115944 | 25 | 225 | 14.5 | 24.1 | 0.00 | 0.05 | 0.00 | 45 | 1053.2 |
| 20260902115444 | 25 | 247 | 14.5 | 37.0 | 0.00 | 0.05 | 0.00 | 44 | 1043.8 |
| 20260902114944 | 25 | 247 | 19.3 | 25.7 | 0.00 | 0.05 | 0.00 | 45 | 1050.1 |
| 20260902113944 | 25 | 247 | 12.9 | 29.0 | 0.00 | 0.05 | 0.00 | 46 | 1046.9 |
| 20260902113444 | 25 | 292 | 8.0 | 29.0 | 0.00 | 0.05 | 0.00 | 46 | 1034.3 |
| 20260902112945 | 25 | 247 | 22.5 | 24.1 | 0.00 | 0.05 | 0.00 | 46 | 1043.7 |
| 20260902112743 | 25 | 135 | 6.4 | 27.4 | 0.00 | 0.05 | 0.00 | 46 | 1056.4 |
| 20260902112444 | 25 | 292 | 24.1 | 27.4 | 0.00 | 0.05 | 0.00 | 48 | 1050.1 |
| 20260902111944 | 25 | 202 | 16.1 | 25.7 | 0.00 | 0.05 | 0.00 | 47 | 1053.2 |
| 20260902111444 | 25 | 247 | 19.3 | 24.1 | 0.00 | 0.05 | 0.00 | 46 | 1043.8 |
| 20260902110944 | 25 | 247 | 11.3 | 22.5 | 0.00 | 0.05 | 0.00 | 49 | 1062.7 |
| 20260902110444 | 24 | 270 | 9.7 | 24.1 | 0.00 | 0.05 | 0.00 | 48 | 1053.2 |
| 20260902105945 | 23 | 247 | 17.7 | 32.2 | 0.00 | 0.10 | 0.00 | 48 | 1046.9 |
| 20260902105443 | 24 | 270 | 19.3 | 25.7 | 0.00 | 0.10 | 0.00 | 48 | 1037.5 |
| 20260902104944 | 24 | 270 | 9.7 | 30.6 | 0.00 | 0.10 | 0.00 | 48 | 1050.0 |
| 20260902104444 | 25 | 247 | 8.0 | 33.8 | 0.00 | 0.10 | 0.00 | 47 | 1050.1 |
| 20260902103945 | 25 | 270 | 33.8 | 35.4 | 0.00 | 0.10 | 0.00 | 48 | 1046.9 |
| 20260902103444 | 25 | 270 | 16.1 | 29.0 | 0.00 | 0.10 | 0.00 | 49 | 1053.2 |
| 20260902102944 | 25 | 270 | 27.4 | 27.4 | 0.00 | 0.10 | 0.00 | 50 | 1053.2 |
| 20260902102444 | 25 | 225 | 11.3 | 24.1 | 0.00 | 0.10 | 0.00 | 52 | 1018.5 |
| 20260902102143 | 24 | 247 | 16.1 | 29.0 | 0.00 | 0.10 | 0.00 | 51 | 1034.3 |
| 20260902101944 | 24 | 270 | 6.4 | 29.0 | 0.00 | 0.10 | 0.00 | 52 | 1056.4 |
| 20260902101444 | 23 | 315 | 9.7 | 24.1 | 0.00 | 0.10 | 0.00 | 51 | 1037.5 |
| 20260902100944 | 24 | 247 | 17.7 | 27.4 | 0.00 | 0.10 | 0.00 | 50 | 1034.3 |
| 20260902100444 | 25 | 270 | 27.4 | 33.8 | 0.00 | 0.10 | 0.00 | 49 | 1043.8 |
| 20260902095944 | 25 | 225 | 17.7 | 22.5 | 0.00 | 0.10 | 0.00 | 52 | 1031.1 |
| 20260902095445 | 24 | 247 | 17.7 | 19.3 | 0.00 | 0.10 | 0.00 | 52 | 1046.9 |
| 20260902094944 | 24 | 270 | 17.7 | 22.5 | 0.00 | 0.10 | 0.00 | 52 | 1015.4 |
| 20260902094844 | 24 | 270 | 20.9 | 22.5 | 0.00 | 0.10 | 0.00 | 53 | 1034.3 |
| 20260902094444 | 24 | 292 | 12.9 | 22.5 | 0.00 | 0.10 | 0.00 | 52 | 1027.9 |
| 20260902093944 | 24 | 247 | 20.9 | 20.9 | 0.00 | 0.10 | 0.00 | 53 | 1028.0 |
| 20260902093445 | 23 | 247 | 12.9 | 22.5 | 0.00 | 0.10 | 0.00 | 54 | 1028.0 |
| 20260902092945 | 23 | 270 | 14.5 | 27.4 | 0.00 | 0.10 | 0.00 | 53 | 1037.5 |
| 20260902092445 | 24 | 292 | 16.1 | 24.1 | 0.00 | 0.10 | 0.00 | 54 | 1015.4 |
| 20260902091945 | 23 | 180 | 9.7 | 24.1 | 0.00 | 0.10 | 0.00 | 54 | 1034.3 |
| 20260902091544 | 23 | 225 | 9.7 | 24.1 | 0.00 | 0.10 | 0.00 | 55 | 1056.4 |
| 20260902091445 | 23 | 225 | 9.7 | 17.7 | 0.00 | 0.10 | 0.00 | 55 | 1031.2 |
| 20260902090945 | 23 | 247 | 8.0 | 24.1 | 0.00 | 0.10 | 0.00 | 54 | 1021.7 |
| 20260902090445 | 23 | 202 | 4.8 | 27.4 | 0.00 | 0.10 | 0.00 | 54 | 1031.1 |
| 20260902085945 | 23 | 270 | 27.4 | 27.4 | 0.00 | 0.10 | 0.00 | 54 | 1028.0 |
| 20260902085445 | 23 | 337 | 4.8 | 24.1 | 0.00 | 0.10 | 0.00 | 55 | 1037.5 |
| 20260902084445 | 24 | 270 | 11.3 | 19.3 | 0.00 | 0.10 | 0.00 | 54 | 1043.7 |
| 20260902084244 | 25 | 315 | 9.7 | 19.3 | 0.00 | 0.10 | 0.00 | 54 | 1043.8 |
| 20260902083945 | 25 | 247 | 14.5 | 14.5 | 0.00 | 0.10 | 0.00 | 54 | 1046.9 |
| 20260902083445 | 25 | 292 | 6.4 | 20.9 | 0.00 | 0.10 | 0.00 | 53 | 1050.1 |
| 20260902082945 | 26 | 292 | 6.4 | 20.9 | 0.00 | 0.10 | 0.00 | 53 | 1031.1 |
| 20260902081945 | 26 | 270 | 3.2 | 12.9 | 0.00 | 0.10 | 0.00 | 54 | 1062.7 |
| 20260902081445 | 26 | 247 | 9.7 | 12.9 | 0.00 | 0.10 | 0.00 | 55 | 1024.8 |
| 20260902080944 | 26 | 270 | 4.8 | 16.1 | 0.00 | 0.10 | 0.00 | 55 | 1031.2 |
| 20260902075945 | 25 | 247 | 4.8 | 11.3 | 0.00 | 0.10 | 0.00 | 57 | 1031.1 |
| 20260902075445 | 25 | 270 | 9.7 | 12.9 | 0.00 | 0.10 | 0.00 | 56 | 1018.5 |
| 20260902074945 | 25 | 270 | 9.7 | 17.7 | 0.00 | 0.10 | 0.00 | 57 | 1031.1 |
| 20260902074445 | 25 | 247 | 6.4 | 17.7 | 0.00 | 0.10 | 0.00 | 57 | 1024.8 |
| 20260902073945 | 25 | 247 | 9.7 | 14.5 | 0.00 | 0.10 | 0.00 | 59 | 1028.0 |
| 20260902073644 | 24 | 270 | 8.0 | 16.1 | 0.00 | 0.10 | 0.00 | 60 | 1031.2 |
| 20260902073445 | 24 | 225 | 8.0 | 16.1 | 0.00 | 0.10 | 0.00 | 60 | 1040.6 |
| 20260902072945 | 24 | 247 | 6.4 | 17.7 | 0.00 | 0.10 | 0.00 | 60 | 1050.1 |
| 20260902072445 | 23 | 202 | 12.9 | 14.5 | 0.00 | 0.10 | 0.00 | 61 | 1031.2 |
| 20260902071945 | 23 | 202 | 12.9 | 17.7 | 0.00 | 0.10 | 0.00 | 61 | 1043.8 |
| 20260902071445 | 23 | 270 | 6.4 | 14.5 | 0.00 | 0.10 | 0.00 | 62 | 1046.9 |
| 20260902070945 | 23 | 270 | 9.7 | 9.7 | 0.00 | 0.10 | 0.00 | 66 | 1053.2 |
| 20260902070344 | 22 | 270 | 1.6 | 9.7 | 0.00 | 0.10 | 0.00 | 67 | 1050.1 |
| 20260902065945 | 21 | 225 | 8.0 | 12.9 | 0.00 | 0.10 | 0.00 | 67 | 1031.1 |
| 20260902064945 | 21 | 270 | 4.8 | 9.7 | 0.00 | 0.10 | 0.00 | 68 | 1043.8 |
| 20260902064445 | 21 | 202 | 4.8 | 12.9 | 0.00 | 0.10 | 0.00 | 67 | 1043.7 |
| 20260902063945 | 22 | 202 | 9.7 | 12.9 | 0.00 | 0.10 | 0.00 | 67 | 1040.6 |
| 20260902063445 | 21 | 180 | 4.8 | 11.3 | 0.00 | 0.10 | 0.00 | 70 | 1072.1 |
| 20260902063044 | 21 | 270 | 11.3 | 12.9 | 0.00 | 0.10 | 0.00 | 72 | 1028.0 |
| 20260902062945 | 20 | 202 | 6.4 | 12.9 | 0.00 | 0.10 | 0.00 | 73 | 1046.9 |
| 20260902062445 | 20 | 157 | 3.2 | 11.3 | 0.00 | 0.10 | 0.00 | 70 | 1056.3 |
| 20260902061945 | 21 | 225 | 9.7 | 14.5 | 0.00 | 0.10 | 0.00 | 69 | 1052.2 |
| 20260902061445 | 21 | 202 | 8.0 | 14.5 | 0.00 | 0.10 | 0.00 | 73 | 1044.9 |
| 20260902060945 | 19 | 180 | 4.8 | 9.7 | 0.00 | 0.10 | 0.00 | 77 | 1056.4 |
| 20260902060445 | 18 | 247 | 9.7 | 12.9 | 0.00 | 0.10 | 0.00 | 72 | 1022.5 |
| 20260902055945 | 19 | 202 | 6.4 | 14.5 | 0.00 | 0.10 | 0.00 | 71 | 1048.3 |
| 20260902055744 | 19 | 225 | 8.0 | 14.5 | 0.00 | 0.10 | 0.00 | 70 | 1055.5 |
| 20260902055445 | 20 | 247 | 3.2 | 14.5 | 0.00 | 0.10 | 0.00 | 69 | 1074.9 |
| 20260902054945 | 21 | 270 | 6.4 | 11.3 | 0.00 | 0.10 | 0.00 | 69 | 1068.6 |
| 20260902054445 | 21 | 202 | 4.8 | 8.0 | 0.00 | 0.10 | 0.00 | 72 | 1042.8 |
| 20260902053945 | 20 | 247 | 0.0 | 8.0 | 0.00 | 0.10 | 0.00 | 75 | 1068.6 |
| 20260902053445 | 20 | 225 | 4.8 | 11.3 | 0.00 | 0.10 | 0.00 | 78 | 1065.8 |
| 20260902052945 | 18 | 157 | 4.8 | 11.3 | 0.00 | 0.10 | 0.00 | 78 | 1061.3 |
| 20260902052444 | 18 | 202 | 4.8 | 12.9 | 0.00 | 0.10 | 0.00 | 78 | 1070.5 |
| 20260902051945 | 18 | 225 | 12.9 | 12.9 | 0.00 | 0.10 | 0.00 | 80 | 1065.9 |
| 20260902051445 | 18 | 202 | 6.4 | 12.9 | 0.00 | 0.10 | 0.00 | 82 | 1043.8 |
| 20260902050945 | 18 | 202 | 4.8 | 12.9 | 0.00 | 0.10 | 0.00 | 85 | 1075.2 |
| 20260902050445 | 18 | 202 | 9.7 | 12.9 | 0.00 | 0.10 | 0.00 | 87 | 1056.6 |
| 20260902045945 | 17 | 202 | 4.8 | 11.3 | 0.00 | 0.10 | 0.00 | 90 | 1056.3 |
| 20260902045445 | 17 | 180 | 6.4 | 9.7 | 0.00 | 0.10 | 0.00 | 91 | 1059.5 |
| 20260902045144 | 17 | 202 | 6.4 | 9.7 | 0.00 | 0.10 | 0.00 | 92 | 1084.6 |
| 20260902044945 | 16 | 202 | 8.0 | 8.0 | 0.00 | 0.10 | 0.00 | 92 | 1069.0 |
| 20260902044445 | 15 | 202 | 4.8 | 6.4 | 0.00 | 0.10 | 0.00 | 91 | 1081.6 |
| 20260902043945 | 14 | 180 | 0.0 | 6.4 | 0.00 | 0.10 | 0.00 | 90 | 1078.4 |
| 20260902043445 | 13 | 202 | 3.2 | 6.4 | 0.00 | 0.10 | 0.00 | 89 | 1065.8 |
| 20260902043032 | 13 | 202 | 1.6 | 8.0 | 0.00 | 0.10 | 0.00 | 89 | 1053.2 |
| 20260902042945 | 13 | 202 | 1.6 | 8.0 | 0.00 | 0.10 | 0.00 | 89 | 1053.2 |
| 20260902042445 | 13 | 180 | 3.2 | 4.8 | 0.00 | 0.10 | 0.00 | 88 | 1076.8 |
| 20260902041945 | 13 | 202 | 3.2 | 6.4 | 0.00 | 0.10 | 0.00 | 88 | 1030.3 |
| 20260902041844 | 13 | 180 | 4.8 | 6.4 | 0.00 | 0.10 | 0.00 | 88 | 1068.9 |
| 20260902041445 | 13 | 202 | 4.8 | 6.4 | 0.00 | 0.10 | 0.00 | 88 | 1072.1 |
| 20260902040945 | 13 | 202 | 1.6 | 3.2 | 0.00 | 0.10 | 0.00 | 88 | 1031.9 |
| 20260902040445 | 13 | 225 | 1.6 | 3.2 | 0.00 | 0.10 | 0.00 | 88 | 1070.5 |
| 20260902035945 | 13 | 180 | 1.6 | 3.2 | 0.00 | 0.10 | 0.00 | 88 | 1056.4 |
| 20260902035445 | 13 | 180 | 3.2 | 6.4 | 0.00 | 0.10 | 0.00 | 88 | 1064.2 |
| 20260902034945 | 13 | 180 | 3.2 | 8.0 | 0.00 | 0.10 | 0.00 | 88 | 1080.0 |
| 20260902034544 | 13 | 225 | 6.4 | 6.4 | 0.00 | 0.10 | 0.00 | 88 | 1085.4 |
| 20260902034445 | 13 | 202 | 3.2 | 6.4 | 0.00 | 0.10 | 0.00 | 88 | 1071.2 |
| 20260902033945 | 13 | 202 | 1.6 | 6.4 | 0.00 | 0.10 | 0.00 | 88 | 1086.2 |
| 20260902033445 | 13 | 225 | 3.2 | 8.0 | 0.00 | 0.10 | 0.00 | 88 | 1059.5 |
| 20260902033104 | 13 | 202 | 6.4 | 12.9 | 0.00 | 0.10 | 0.00 | 88 | 1073.7 |
| 20260902032945 | 13 | 225 | 3.2 | 9.7 | 0.00 | 0.10 | 0.00 | 88 | 1033.4 |
| 20260902032445 | 13 | 202 | 6.4 | 12.9 | 0.00 | 0.10 | 0.00 | 88 | 1073.7 |
| 20260902032018 | 13 | 225 | 4.8 | 8.0 | 0.00 | 0.10 | 0.00 | 88 | 1062.7 |
| 20260902031945 | 13 | 225 | 4.8 | 8.0 | 0.00 | 0.10 | 0.00 | 88 | 1062.7 |
| 20260902031445 | 13 | 225 | 4.8 | 11.3 | 0.00 | 0.10 | 0.00 | 88 | 1022.3 |
| 20260902031244 | 13 | 202 | 8.0 | 17.7 | 0.00 | 0.10 | 0.00 | 88 | 1067.4 |
| 20260902030945 | 13 | 247 | 3.2 | 17.7 | 0.00 | 0.10 | 0.00 | 88 | 1057.9 |
| 20260902030445 | 13 | 225 | 3.2 | 9.7 | 0.00 | 0.10 | 0.00 | 88 | 1056.4 |
| 20260902025945 | 13 | 180 | 8.0 | 11.3 | 0.00 | 0.10 | 0.00 | 88 | 1077.7 |
| 20260902025445 | 14 | 202 | 4.8 | 11.3 | 0.00 | 0.10 | 0.00 | 88 | 1011.1 |
| 20260902024945 | 14 | 202 | 8.0 | 11.3 | 0.00 | 0.10 | 0.00 | 88 | 1050.1 |
| 20260902024445 | 14 | 247 | 8.0 | 11.3 | 0.00 | 0.10 | 0.00 | 88 | 1078.4 |
| 20260902023944 | 13 | 202 | 6.4 | 11.3 | 0.00 | 0.10 | 0.00 | 88 | 1072.2 |
| 20260902023445 | 13 | 180 | 4.8 | 8.0 | 0.00 | 0.10 | 0.00 | 88 | 1065.8 |
| 20260902022945 | 13 | 180 | 4.8 | 9.7 | 0.00 | 0.10 | 0.00 | 88 | 1082.8 |
| 20260902022445 | 13 | 180 | 4.8 | 9.7 | 0.00 | 0.10 | 0.00 | 87 | 1053.2 |
| 20260902021945 | 13 | 202 | 3.2 | 9.7 | 0.00 | 0.10 | 0.00 | 87 | 1084.6 |
| 20260902021445 | 13 | 180 | 4.8 | 6.4 | 0.00 | 0.10 | 0.00 | 87 | 1059.6 |
| 20260902020945 | 13 | 202 | 3.2 | 11.3 | 0.00 | 0.10 | 0.00 | 87 | 1050.1 |
| 20260902020644 | 13 | 202 | 6.4 | 11.3 | 0.00 | 0.10 | 0.00 | 87 | 1075.3 |
| 20260902020445 | 13 | 202 | 9.7 | 9.7 | 0.00 | 0.10 | 0.00 | 87 | 1036.7 |
| 20260902015945 | 13 | 202 | 6.4 | 11.3 | 0.00 | 0.10 | 0.00 | 87 | 1022.4 |
| 20260902015445 | 13 | 202 | 8.0 | 9.7 | 0.00 | 0.10 | 0.00 | 87 | 1034.9 |
| 20260902014945 | 13 | 180 | 6.4 | 9.7 | 0.00 | 0.10 | 0.00 | 87 | 1004.7 |
| 20260902014445 | 13 | 180 | 6.4 | 12.9 | 0.00 | 0.10 | 0.00 | 87 | 1078.4 |
| 20260902013945 | 13 | 225 | 12.9 | 12.9 | 0.00 | 0.10 | 0.00 | 87 | 1063.9 |
| 20260902013445 | 14 | 225 | 9.7 | 12.9 | 0.00 | 0.10 | 0.00 | 87 | 1031.0 |
| 20260902013344 | 14 | 180 | 9.7 | 16.1 | 0.00 | 0.10 | 0.00 | 87 | 1056.4 |
| 20260902012945 | 14 | 225 | 9.7 | 16.1 | 0.00 | 0.10 | 0.00 | 87 | 1070.5 |
| 20260902012445 | 14 | 202 | 12.9 | 16.1 | 0.00 | 0.10 | 0.00 | 86 | 1050.1 |
| 20260902011945 | 14 | 202 | 6.4 | 12.9 | 0.00 | 0.10 | 0.00 | 86 | 1056.4 |
| 20260902011445 | 14 | 202 | 9.7 | 16.1 | 0.00 | 0.10 | 0.00 | 86 | 1069.0 |
| 20260902010945 | 14 | 270 | 9.7 | 14.5 | 0.00 | 0.10 | 0.00 | 86 | 1056.4 |
| 20260902010446 | 14 | 202 | 3.2 | 11.3 | 0.00 | 0.10 | 0.00 | 86 | 1027.2 |
| 20260902010044 | 14 | 247 | 6.4 | 14.5 | 0.00 | 0.10 | 0.00 | 87 | 1034.2 |
| 20260902005945 | 14 | 247 | 3.2 | 14.5 | 0.00 | 0.10 | 0.00 | 87 | 1034.2 |
| 20260902005445 | 14 | 247 | 6.4 | 16.1 | 0.00 | 0.10 | 0.00 | 86 | 1059.5 |
| 20260902004945 | 14 | 225 | 16.1 | 16.1 | 0.00 | 0.10 | 0.00 | 86 | 1057.9 |
| 20260902004445 | 14 | 180 | 8.0 | 14.5 | 0.00 | 0.10 | 0.00 | 86 | 1035.1 |
| 20260902003946 | 14 | 225 | 4.8 | 12.9 | 0.00 | 0.10 | 0.00 | 86 | 1075.3 |
| 20260902003445 | 14 | 202 | 6.4 | 11.3 | 0.00 | 0.10 | 0.00 | 86 | 1062.7 |
| 20260902002945 | 14 | 202 | 8.0 | 11.3 | 0.00 | 0.10 | 0.00 | 86 | 1062.7 |
| 20260902002744 | 14 | 180 | 8.0 | 8.0 | 0.00 | 0.10 | 0.00 | 86 | 1065.8 |
| 20260902002445 | 14 | 202 | 6.4 | 6.4 | 0.00 | 0.10 | 0.00 | 86 | 1065.8 |
| 20260902001945 | 15 | 202 | 4.8 | 6.4 | 0.00 | 0.10 | 0.00 | 86 | 1059.3 |
| 20260902001445 | 15 | 202 | 6.4 | 9.7 | 0.00 | 0.10 | 0.00 | 86 | 1056.4 |
| 20260902000945 | 15 | 225 | 4.8 | 14.5 | 0.00 | 0.10 | 0.00 | 86 | 1059.5 |
| 20260902000445 | 15 | 247 | 14.5 | 14.5 | 0.00 | 0.10 | 0.00 | 86 | 1086.2 |
| 20260901235945 | 15 | 202 | 6.4 | 11.3 | 0.00 | 0.10 | 0.00 | 86 | 1023.0 |
| 20260901235445 | 15 | 202 | 6.4 | 9.7 | 0.00 | 0.10 | 0.00 | 86 | 1078.3 |
| 20260901234946 | 15 | 202 | 8.0 | 9.7 | 0.00 | 0.10 | 0.00 | 86 | 1059.5 |
| 20260901234446 | 15 | 225 | 8.0 | 9.7 | 0.00 | 0.10 | 0.00 | 86 | 1053.2 |